GW4186 Weather Reports


Display with metric or nautical units.
time (UTC)temp
F
wind
direction
speed
MPH
gust
MPH
rain 1hr
in
rain 24hr
in
rain mn
in
humidity
%
barometer
mb
20260505213053 56 102 9.0 18.0 0.12 0.12 0.12 90 990.2
20260505211606 59 153 9.0 34.0 0.04 0.04 0.04 81 989.0
20260505210054 69 62 11.0 22.0 0.00 0.00 0.00 47 987.1
20260505204601 70 42 10.0 21.0 0.00 0.00 0.00 47 986.7
20260505203055 69 15 5.0 20.0 0.00 0.00 0.00 48 986.5
20260505201559 69 47 5.0 19.0 0.00 0.00 0.00 48 986.6
20260505200054 69 331 6.0 20.0 0.00 0.00 0.00 49 986.6
20260505194607 69 38 12.0 23.0 0.00 0.00 0.00 49 986.9
20260505193052 70 40 5.0 24.0 0.00 0.00 0.00 49 987.1
20260505191550 70 29 13.0 26.0 0.00 0.00 0.00 48 987.0
20260505190052 70 81 10.0 23.0 0.00 0.00 0.00 50 987.1
20260505184550 70 17 14.0 27.0 0.00 0.00 0.00 47 987.3
20260505183051 70 45 10.0 20.0 0.00 0.00 0.00 49 987.7
20260505181555 69 48 5.0 17.0 0.00 0.00 0.00 52 987.7
20260505180051 68 45 13.0 29.0 0.00 0.00 0.00 52 987.7
20260505174555 68 45 12.0 24.0 0.00 0.01 0.00 52 987.9
20260505173051 68 41 10.0 21.0 0.00 0.01 0.00 52 988.2
20260505171553 67 65 13.0 26.0 0.00 0.01 0.00 52 988.6
20260505170048 67 52 9.0 23.0 0.00 0.01 0.00 53 988.5
20260505164615 66 59 13.0 23.0 0.00 0.02 0.00 56 988.8
20260505163102 65 32 12.0 20.0 0.00 0.02 0.00 57 989.0
20260505161607 66 48 10.0 21.0 0.00 0.02 0.00 56 989.3
20260505153051 65 56 10.0 22.0 0.00 0.03 0.00 57 989.6
20260505151555 63 49 10.0 20.0 0.00 0.03 0.00 58 989.9
20260505130110 59 23 10.0 15.0 0.00 0.03 0.00 59 989.9
20260505124600 59 31 11.0 19.0 0.00 0.03 0.00 58 989.6
20260505123051 59 58 8.0 17.0 0.00 0.03 0.00 58 990.0
20260505121555 58 40 10.0 19.0 0.00 0.03 0.00 61 990.1
20260505120108 57 59 9.0 17.0 0.00 0.03 0.00 60 990.4
20260505114555 56 20 8.0 16.0 0.00 0.03 0.00 61 990.5
20260505113054 56 20 10.0 18.0 0.00 0.03 0.00 61 990.5
20260505111547 55 41 10.0 18.0 0.00 0.03 0.00 62 990.4
20260505101552 54 27 12.0 18.0 0.00 0.03 0.00 62 990.2
20260505100048 54 70 9.0 19.0 0.00 0.03 0.00 62 990.2
20260505094550 54 33 12.0 20.0 0.00 0.03 0.00 61 990.2
20260505093053 54 11 11.0 17.0 0.00 0.03 0.00 61 990.3
20260505091550 54 33 10.0 19.0 0.00 0.03 0.00 61 990.3
20260505090053 54 27 10.0 21.0 0.00 0.03 0.00 60 990.3
20260505084551 54 64 11.0 19.0 0.00 0.03 0.00 59 990.3
20260505083049 54 61 11.0 23.0 0.00 0.03 0.00 59 990.4
20260505081554 53 37 11.0 18.0 0.00 0.03 0.00 59 990.5
20260505080050 53 42 9.0 17.0 0.00 0.03 0.00 59 990.6
20260505074553 53 22 9.0 18.0 0.00 0.03 0.00 59 990.5
20260505073050 53 38 9.0 18.0 0.00 0.03 0.00 59 990.6
20260505071554 53 33 11.0 19.0 0.00 0.03 0.00 60 990.6
20260505070053 53 11 10.0 18.0 0.00 0.03 0.00 60 990.5
20260505064549 53 29 12.0 21.0 0.00 0.03 0.00 60 990.6
20260505063048 53 23 12.0 19.0 0.00 0.03 0.00 60 990.6
20260505061554 53 8 10.0 16.0 0.00 0.03 0.00 60 990.4
20260505060056 53 12 12.0 20.0 0.00 0.03 0.00 59 990.4
20260505054557 53 16 11.0 20.0 0.00 0.03 0.00 60 990.6
20260505053101 53 7 10.0 17.0 0.00 0.03 0.00 60 990.6
20260505051554 53 38 10.0 15.0 0.00 0.03 0.00 60 990.5
20260505041553 53 43 9.0 17.0 0.00 0.03 0.00 61 990.5
20260505040054 53 15 9.0 16.0 0.00 0.03 0.00 61 990.3
20260505034550 53 29 10.0 14.0 0.00 0.03 0.03 62 990.3
20260505033051 52 31 9.0 15.0 0.00 0.03 0.03 62 990.3
20260505031549 52 10 9.0 15.0 0.00 0.03 0.03 62 990.4
20260505030053 52 8 9.0 16.0 0.00 0.03 0.03 63 990.3
20260505024552 52 12 9.0 14.0 0.00 0.03 0.03 65 990.5
20260505023055 52 25 9.0 14.0 0.00 0.03 0.03 65 990.5
20260505021552 51 32 9.0 12.0 0.00 0.03 0.03 66 990.6
20260505020055 52 22 8.0 14.0 0.00 0.03 0.03 66 990.6
20260505014553 52 35 7.0 15.0 0.00 0.03 0.03 66 990.8
20260505013054 51 6 9.0 15.0 0.00 0.03 0.03 68 990.7
20260505011554 50 11 9.0 13.0 0.00 0.03 0.03 70 990.4
20260505010101 50 22 7.0 12.0 0.00 0.03 0.03 69 990.4
20260505004602 50 49 8.0 14.0 0.00 0.03 0.03 70 990.2
20260505003104 50 45 8.0 12.0 0.00 0.03 0.03 72 990.1
20260505001556 49 29 7.0 12.0 0.00 0.03 0.03 74 989.7
20260505000105 49 14 6.0 9.0 0.00 0.03 0.03 76 989.6
20260504234556 49 39 4.0 6.0 0.00 0.03 0.03 74 989.3
20260504233055 50 42 3.0 6.0 0.00 0.03 0.03 73 989.0
20260504231555 51 47 3.0 7.0 0.00 0.03 0.03 71 988.9
20260504230055 52 70 1.0 7.0 0.00 0.03 0.03 70 988.9
20260504224600 52 63 5.0 11.0 0.00 0.03 0.03 70 988.7
20260504223057 52 138 4.0 13.0 0.00 0.03 0.03 70 988.7
20260504221554 52 133 7.0 16.0 0.00 0.03 0.03 70 988.6
20260504220112 51 99 11.0 19.0 0.00 0.03 0.03 70 988.6
20260504214558 51 108 7.0 15.0 0.00 0.03 0.03 70 988.6